Bucks Lake Weather Center

Moon Phase Calendar



Bucks Lake Water Level
Online Cameras

 


      

Current Conditions in Quincy
10/18/2021 9:40:09 PM

33°F
Feels Like 30
Clouds
Humidity
95%
Pressure
30.12"
Wind
3.2 mph (NE)
Dew Point
32°F
UV Index
0/10 (Low)
Visibility
6 mi

Hourly Forecast

Date & Time Mon, Oct 18
9:00 PM
Mon, Oct 18
10:00 PM
Mon, Oct 18
11:00 PM
Tue, Oct 19
12:00 AM
Tue, Oct 19
1:00 AM
Tue, Oct 19
2:00 AM
Tue, Oct 19
3:00 AM
Tue, Oct 19
4:00 AM
Tue, Oct 19
5:00 AM
Tue, Oct 19
6:00 AM
Tue, Oct 19
7:00 AM
Tue, Oct 19
8:00 AM
Tue, Oct 19
9:00 AM
Tue, Oct 19
10:00 AM
Tue, Oct 19
11:00 AM
Tue, Oct 19
12:00 PM
Tue, Oct 19
1:00 PM
Tue, Oct 19
2:00 PM
Tue, Oct 19
3:00 PM
Tue, Oct 19
4:00 PM
Tue, Oct 19
5:00 PM
Tue, Oct 19
6:00 PM
Tue, Oct 19
7:00 PM
Tue, Oct 19
8:00 PM
Tue, Oct 19
9:00 PM
Tue, Oct 19
10:00 PM
Tue, Oct 19
11:00 PM
Wed, Oct 20
12:00 AM
Wed, Oct 20
1:00 AM
Wed, Oct 20
2:00 AM
Wed, Oct 20
3:00 AM
Wed, Oct 20
4:00 AM
Wed, Oct 20
5:00 AM
Wed, Oct 20
6:00 AM
Wed, Oct 20
7:00 AM
Wed, Oct 20
8:00 AM
Wed, Oct 20
9:00 AM
Wed, Oct 20
10:00 AM
Wed, Oct 20
11:00 AM
Wed, Oct 20
12:00 PM
Wed, Oct 20
1:00 PM
Wed, Oct 20
2:00 PM
Wed, Oct 20
3:00 PM
Wed, Oct 20
4:00 PM
Wed, Oct 20
5:00 PM
Wed, Oct 20
6:00 PM
Wed, Oct 20
7:00 PM
Wed, Oct 20
8:00 PM
Condition
Clouds

Clouds

Clouds

Clouds

Clouds

Clouds

Clouds

Clouds

Clouds

Clouds

Clouds

Clouds

Clouds

Clouds

Clouds

Clouds

Clouds

Clouds

Clouds

Clouds

Clouds

Clouds

Clouds

Clouds

Clouds

Clouds

Rain

Rain

Rain

Rain

Rain

Rain

Rain

Rain

Rain

Rain

Rain

Rain

Rain

Rain

Rain

Clouds

Rain

Rain

Rain

Rain

Rain

Rain
Temperature 33°F33°F32°F30°F28°F25°F23°F24°F24°F24°F24°F26°F31°F35°F40°F43°F45°F45°F46°F46°F44°F38°F33°F32°F31°F33°F34°F34°F35°F35°F34°F33°F33°F34°F34°F34°F35°F36°F37°F39°F41°F40°F40°F40°F41°F40°F40°F40°F
Feels Like 33°F30°F28°F26°F23°F20°F18°F18°F17°F17°F19°F20°F28°F35°F40°F41°F42°F43°F43°F43°F42°F36°F33°F29°F27°F30°F28°F31°F29°F29°F28°F28°F29°F29°F31°F32°F35°F34°F33°F36°F38°F38°F39°F40°F41°F40°F40°F38°F
Cloudiness 81%78%76%54%45%38%32%35%39%56%78%77%80%84%82%100%100%100%100%100%100%100%100%99%96%96%94%100%100%100%100%100%100%100%100%100%100%100%100%100%100%100%100%100%100%100%100%100%
Visibility 6 mi6 mi6 mi6 mi6 mi6 mi6 mi6 mi6 mi6 mi6 mi6 mi6 mi6 mi6 mi6 mi6 mi6 mi6 mi6 mi6 mi6 mi6 mi6 mi6 mi6 mi6 mi6 mi4 mi5 mi2 mi3 mi2 mi2 mi2 mi3 mi3 mi4 mi3 mi1 mi5 mi5 mi6 mi5 mi5 mi3 mi4 mi3 mi
Precipitation 0%0%0%0%0%0%0%0%0%0%0%0%0%0%0%0%0%0%0%0%0%0%0%0%0%4%31%86%97%98%98%98%98%90%96%96%96%94%95%64%65%53%48%44%47%46%68%88%
Humidity 95%95%96%96%96%96%96%95%95%95%93%92%86%82%76%74%72%71%71%71%77%85%88%87%88%87%85%92%93%94%97%97%99%98%99%99%99%99%99%98%98%98%98%99%99%99%99%99%
Dew Point 32°F32°F31°F29°F27°F25°F24°F24°F24°F24°F24°F25°F29°F31°F34°F36°F37°F37°F37°F37°F38°F35°F31°F30°F29°F31°F31°F34°F35°F35°F35°F34°F35°F35°F36°F36°F37°F37°F38°F40°F42°F41°F42°F42°F42°F42°F42°F41°F
Pressure 30.12"30.12"30.12"30.12"30.15"30.15"30.15"30.15"30.15"30.15"30.15"30.15"30.12"30.09"30.03"30"29.97"29.94"29.91"29.88"29.88"29.91"29.97"30.03"30.06"30"30"30"30"30"30.03"30.06"30.09"30.09"30.09"30.09"30.12"30.12"30.12"30.12"30.12"30.09"30.09"30.09"30.09"30.09"30.12"30.12"
Wind Speed 2.2 mph3.2 mph3.9 mph3.8 mph4.1 mph4.2 mph4.3 mph4.6 mph4.9 mph5.1 mph4.5 mph4.5 mph3.2 mph1.5 mph2.3 mph3.8 mph4.5 mph5 mph5.1 mph5.2 mph4.3 mph3.7 mph2.8 mph3.2 mph3.8 mph3.2 mph5.9 mph3.8 mph6.3 mph6.9 mph6.8 mph6 mph5 mph5.4 mph4.2 mph3.4 mph2.5 mph3.2 mph4.7 mph3.3 mph4.4 mph3.1 mph3 mph2.5 mph2.6 mph1.9 mph2.2 mph3 mph
Wind
Direction
37°
NE
43°
NE
43°
NE
36°
NE
42°
NE
39°
NE
43°
NE
46°
NE
51°
NE
51°
NE
46°
NE
55°
NE
60°
ENE
96°
E
171°
S
169°
S
187°
S
180°
S
177°
S
185°
S
176°
S
194°
SSW
157°
SSE
144°
SE
133°
SE
147°
SSE
145°
SE
172°
S
170°
S
165°
SSE
170°
S
161°
SSE
177°
S
167°
SSE
161°
SSE
194°
SSW
180°
S
208°
SSW
201°
SSW
213°
SSW
193°
SSW
177°
S
183°
S
162°
SSE
167°
SSE
151°
SSE
151°
SSE
116°
ESE

Daily Forecast

Date High Low Precip. Humidity
Today
Oct 18

Snow
37 °F
31 °F
94%
98%
Tuesday
Oct 19

Rain
46 °F
23 °F
31%
74%
Wednesday
Oct 20

Rain
41 °F
33 °F
98%
99%
Thursday
Oct 21

Rain
46 °F
41 °F
100%
99%
Friday
Oct 22

Rain
46 °F
38 °F
100%
99%
Saturday
Oct 23

Rain
42 °F
31 °F
100%
68%
Sunday
Oct 24

Rain
42 °F
34 °F
100%
100%
Monday
Oct 25

Snow
33 °F
31 °F
100%
100%
Tuesday
Oct 26

Snow
34 °F
32 °F
100%
100%
Wednesday
Oct 27

Clouds
37 °F
31 °F
0%
94%
Thursday
Oct 28

Snow
36 °F
30 °F
100%
95%
Friday
Oct 29

Snow
36 °F
17 °F
59%
91%
Saturday
Oct 30

Snow
36 °F
27 °F
100%
96%
Sunday
Oct 31

Clouds
38 °F
27 °F
0%
88%
Monday
Nov 1

Clouds
43 °F
27 °F
0%
80%
Tuesday
Nov 2

Clouds
49 °F
34 °F
0%
75%

Temperature 8-14 Day Outlook



Precipitation 8-14 Day Outlook




Quick Links
Bucks Lake News
Bucks Lake Photos
Bucks Lake Videos




About Us
Contact Us
Site Map
Search Site
Advertise With Us
   
Bucks.LakesOnline.com
THE BUCKS LAKE WEBSITE

Copyright 2021, Lakes Online
Privacy    |    Legal